When you browse on this site, cookies collect data to enhance your experience and personalize the content and advertising you see.
Visit our Privacy Policy to learn more. By continuing to use the site, you agree to this use of cookies and data.
  • In United Kingdom
  • List of Countries
  • For 7 days
  • Water Temperature
  • Weather Map
  • Weather Widgets
  • user-avatar
    Login

    Hourly Weather Carei

    Today, 16 September, Monday

    Time Temperature Precipitation Wind Pressure Humidity
    00:00 +14°C° 0 mm 2 mps 755 mmHg 56%
    01:00 +13°C° 0 mm 2 mps 755 mmHg 59%
    02:00 +13°C° 0 mm 2 mps 754 mmHg 60%
    03:00 +13°C° 0 mm 2 mps 754 mmHg 62%
    04:00 +12°C° 0 mm 1 mps 754 mmHg 64%
    05:00 +14°C° 0 mm 1 mps 754 mmHg 60%
    06:00 +15°C° 0 mm 2 mps 754 mmHg 56%
    07:00 +17°C° 0 mm 2 mps 754 mmHg 52%
    08:00 +19°C° 0 mm 2 mps 753 mmHg 49%
    09:00 +21°C° 0 mm 2 mps 753 mmHg 45%
    10:00 +25°C° 0 mm 3 mps 753 mmHg 41%
    11:00 +26°C° 0 mm 3 mps 752 mmHg 40%
    12:00 +27°C° 0 mm 3 mps 752 mmHg 38%
    13:00 +29°C° 0 mm 4 mps 752 mmHg 37%
    14:00 +28°C° 0 mm 4 mps 751 mmHg 38%
    15:00 +28°C° 0 mm 4 mps 751 mmHg 39%
    16:00 +28°C° 0 mm 4 mps 750 mmHg 41%
    17:00 +26°C° 0 mm 3 mps 750 mmHg 49%
    18:00 +23°C° 0 mm 2 mps 750 mmHg 58%
    19:00 +21°C° 0 mm 1 mps 750 mmHg 67%
    20:00 +19°C° 0 mm 2 mps 750 mmHg 69%
    21:00 +19°C° 0 mm 2 mps 750 mmHg 71%
    22:00 +18°C° 0 mm 2 mps 750 mmHg 73%
    23:00 +17°C° 0 mm 2 mps 750 mmHg 75%

    Tomorrow, 17 September, Tuesday

    Time Temperature Precipitation Wind Pressure Humidity
    00:00 +17°C° 0 mm 2 mps 750 mmHg 76%
    01:00 +16°C° 0 mm 2 mps 749 mmHg 78%
    02:00 +16°C° 0.1 mm 2 mps 749 mmHg 79%
    03:00 +16°C° 0.1 mm 1 mps 749 mmHg 79%
    04:00 +16°C° 0.1 mm 1 mps 749 mmHg 79%
    05:00 +18°C° 0.1 mm 1 mps 749 mmHg 78%
    06:00 +18°C° 0.1 mm 1 mps 749 mmHg 77%
    07:00 +17°C° 0.1 mm 2 mps 749 mmHg 76%
    08:00 +19°C° 0 mm 2 mps 749 mmHg 70%
    09:00 +20°C° 0 mm 2 mps 749 mmHg 64%
    10:00 +21°C° 0 mm 3 mps 750 mmHg 58%
    11:00 +22°C° 0 mm 3 mps 749 mmHg 56%
    12:00 +22°C° 0 mm 3 mps 749 mmHg 53%
    13:00 +22°C° 0 mm 3 mps 748 mmHg 51%
    14:00 +23°C° 0 mm 4 mps 748 mmHg 50%
    15:00 +23°C° 0 mm 5 mps 748 mmHg 50%
    16:00 +23°C° 0 mm 5 mps 748 mmHg 49%
    17:00 +22°C° 0 mm 5 mps 748 mmHg 55%
    18:00 +20°C° 0 mm 5 mps 748 mmHg 60%
    19:00 +19°C° 0 mm 5 mps 748 mmHg 66%
    20:00 +17°C° 0 mm 5 mps 748 mmHg 68%
    21:00 +16°C° 0 mm 5 mps 748 mmHg 71%
    22:00 +15°C° 0 mm 5 mps 748 mmHg 74%
    23:00 +14°C° 0 mm 5 mps 748 mmHg 75%

    Day after tomorrow, 18 September, Wednesday

    Time Temperature Precipitation Wind Pressure Humidity
    00:00 +13°C° 0 mm 4 mps 748 mmHg 76%
    01:00 +12°C° 0 mm 4 mps 748 mmHg 77%
    02:00 +12°C° 0 mm 4 mps 749 mmHg 74%
    03:00 +11°C° 0 mm 4 mps 749 mmHg 70%
    04:00 +11°C° 0 mm 4 mps 750 mmHg 67%
    05:00 +11°C° 0 mm 4 mps 750 mmHg 60%
    06:00 +10°C° 0 mm 5 mps 751 mmHg 53%
    07:00 +11°C° 0 mm 6 mps 752 mmHg 46%
    08:00 +13°C° 0 mm 5 mps 752 mmHg 43%
    09:00 +14°C° 0 mm 5 mps 753 mmHg 40%
    10:00 +15°C° 0 mm 5 mps 753 mmHg 36%
    11:00 +16°C° 0 mm 5 mps 753 mmHg 34%
    12:00 +18°C° 0 mm 4 mps 754 mmHg 32%
    13:00 +18°C° 0 mm 4 mps 754 mmHg 30%
    14:00 +18°C° 0 mm 4 mps 754 mmHg 31%
    15:00 +18°C° 0 mm 3 mps 754 mmHg 31%
    16:00 +18°C° 0 mm 3 mps 754 mmHg 31%
    17:00 +15°C° 0 mm 2 mps 754 mmHg 37%
    18:00 +13°C° 0 mm 2 mps 755 mmHg 43%
    19:00 +10°C° 0 mm 2 mps 755 mmHg 50%
    20:00 +9°C° 0 mm 2 mps 755 mmHg 52%
    21:00 +9°C° 0 mm 2 mps 755 mmHg 55%
    22:00 +8°C° 0 mm 2 mps 756 mmHg 58%
    23:00 +8°C° 0 mm 2 mps 756 mmHg 58%

    19 September, Thursday

    Time Temperature Precipitation Wind Pressure Humidity
    00:00 +7°C° 0 mm 2 mps 756 mmHg 59%
    01:00 +7°C° 0 mm 2 mps 756 mmHg 60%
    02:00 +6°C° 0 mm 2 mps 755 mmHg 62%
    03:00 +6°C° 0 mm 2 mps 755 mmHg 64%
    04:00 +5°C° 0 mm 2 mps 755 mmHg 66%
    05:00 +6°C° 0 mm 2 mps 755 mmHg 62%
    06:00 +7°C° 0 mm 2 mps 755 mmHg 58%
    07:00 +8°C° 0 mm 2 mps 755 mmHg 55%
    08:00 +12°C° 0 mm 2 mps 755 mmHg 49%
    09:00 +13°C° 0 mm 3 mps 755 mmHg 44%
    10:00 +16°C° 0 mm 3 mps 756 mmHg 38%
    11:00 +15°C° 0 mm 4 mps 755 mmHg 36%
    12:00 +17°C° 0 mm 4 mps 755 mmHg 34%
    13:00 +18°C° 0 mm 4 mps 755 mmHg 32%
    14:00 +17°C° 0 mm 4 mps 755 mmHg 32%
    15:00 +17°C° 0 mm 4 mps 755 mmHg 32%
    16:00 +17°C° 0 mm 4 mps 755 mmHg 33%
    17:00 +14°C° 0 mm 3 mps 756 mmHg 40%
    18:00 +11°C° 0 mm 3 mps 756 mmHg 47%
    19:00 +9°C° 0 mm 3 mps 756 mmHg 55%
    20:00 +9°C° 0 mm 3 mps 757 mmHg 59%
    21:00 +8°C° 0 mm 3 mps 757 mmHg 63%
    22:00 +8°C° 0 mm 3 mps 757 mmHg 67%
    23:00 +7°C° 0 mm 3 mps 757 mmHg 69%

    20 September, Friday

    Time Temperature Precipitation Wind Pressure Humidity
    00:00 +7°C° 0 mm 3 mps 757 mmHg 72%
    01:00 +6°C° 0 mm 2 mps 758 mmHg 74%
    02:00 +5°C° 0 mm 3 mps 758 mmHg 76%
    03:00 +4°C° 0 mm 3 mps 758 mmHg 78%
    04:00 +4°C° 0 mm 3 mps 758 mmHg 79%
    05:00 +5°C° 0 mm 3 mps 758 mmHg 75%
    06:00 +7°C° 0 mm 3 mps 758 mmHg 71%
    07:00 +7°C° 0 mm 4 mps 758 mmHg 67%
    08:00 +10°C° 0 mm 4 mps 758 mmHg 56%
    09:00 +12°C° 0 mm 5 mps 758 mmHg 45%
    10:00 +14°C° 0 mm 6 mps 759 mmHg 33%
    11:00 +15°C° 0 mm 6 mps 758 mmHg 32%
    12:00 +15°C° 0 mm 6 mps 758 mmHg 30%
    13:00 +16°C° 0 mm 6 mps 758 mmHg 28%
    14:00 +16°C° 0 mm 5 mps 758 mmHg 29%
    15:00 +15°C° 0 mm 5 mps 758 mmHg 30%
    16:00 +15°C° 0 mm 5 mps 758 mmHg 31%
    17:00 +13°C° 0 mm 4 mps 758 mmHg 36%
    18:00 +11°C° 0 mm 3 mps 759 mmHg 42%
    19:00 +9°C° 0 mm 2 mps 759 mmHg 47%
    20:00 +8°C° 0 mm 2 mps 759 mmHg 51%
    21:00 +8°C° 0 mm 2 mps 760 mmHg 54%
    22:00 +8°C° 0 mm 1 mps 760 mmHg 57%
    23:00 +8°C° 0 mm 1 mps 760 mmHg 60%

    21 September, Saturday

    Time Temperature Precipitation Wind Pressure Humidity
    00:00 +7°C° 0 mm 1 mps 760 mmHg 63%
    01:00 +6°C° 0 mm 0 mps 760 mmHg 66%
    02:00 +5°C° 0 mm 0 mps 760 mmHg 68%
    03:00 +5°C° 0 mm 0 mps 760 mmHg 70%
    04:00 +4°C° 0 mm 0 mps 759 mmHg 72%
    05:00 +6°C° 0 mm 0 mps 759 mmHg 67%
    06:00 +7°C° 0 mm 0 mps 759 mmHg 62%
    07:00 +8°C° 0 mm 0 mps 759 mmHg 57%
    08:00 +11°C° 0 mm 0 mps 759 mmHg 51%
    09:00 +14°C° 0 mm 1 mps 759 mmHg 45%
    10:00 +16°C° 0 mm 1 mps 759 mmHg 39%
    11:00 +18°C° 0 mm 1 mps 759 mmHg 36%
    12:00 +18°C° 0 mm 2 mps 758 mmHg 34%
    13:00 +19°C° 0 mm 3 mps 758 mmHg 32%
    14:00 +19°C° 0 mm 3 mps 758 mmHg 32%
    15:00 +19°C° 0 mm 3 mps 758 mmHg 33%
    16:00 +19°C° 0 mm 3 mps 757 mmHg 33%
    17:00 +16°C° 0 mm 2 mps 758 mmHg 39%
    18:00 +14°C° 0 mm 1 mps 758 mmHg 45%
    19:00 +12°C° 0 mm 1 mps 758 mmHg 52%
    20:00 +11°C° 0 mm 1 mps 758 mmHg 53%
    21:00 +10°C° 0 mm 0 mps 758 mmHg 55%
    22:00 +9°C° 0 mm 0 mps 758 mmHg 56%
    23:00 +9°C° 0 mm 0 mps 758 mmHg 57%
    Show more